Regional Weather Roundup
Issued by NWS

Home | Current Version | Previous Version | Text Only | Print | Product List | Glossary On
Versions: 1 2 3 4 5 6 7 8 9 10 11 12 13 14 15 16 17 18 19 20 21 22 23 24 25 26 27 28 29 30 31 32 33 34 35 36 37 38 39 40 41 42 43 44 45 46 47 48 49 50
000
ASUS43 KMPX 251110
RWRMN
WEATHER ROUNDUP FOR MINNESOTA
NATIONAL WEATHER SERVICE TWIN CITIES/CHANHASSEN MN
600 AM CDT MON MAY 25 2015


NOTE: "FAIR" INDICATES FEW OR NO CLOUDS BELOW 12,000 FEET WITH NO
SIGNIFICANT WEATHER AND/OR OBSTRUCTIONS TO VISIBILITY. N/A MEANS
CURRENT SKY AND/OR WEATHER CONDITIONS ARE NOT AVAILABLE.

MNZ060>063-068>070-251200-
   Twin Cities Metro

CITY           SKY/WX    TMP DP  RH WIND       PRES   REMARKS
TWIN CITIES    CLOUDY    57  57 100 SE10      29.66F FOG
ST PAUL        CLOUDY    58  58 100 SE5       29.67F FOG
CRYSTAL        CLOUDY    57  57 100 E5        29.65S FOG
BLAINE         CLOUDY    59  57  94 E5        29.67F FOG
LAKEVILLE      CLOUDY    57  57 100 CALM      29.67S FOG
EDEN PRAIRIE   CLOUDY    59  58  96 SE5       29.65S FOG
SOUTH ST PAUL  CLOUDY    58  57  96 SE3       29.67S FOG
LAKE ELMO      CLOUDY    57  55  94 CALM      29.69S
$$
MNZ001>005-007-008-013>017-022>024-027-028-251200-
   Northwest Minnesota

CITY           SKY/WX    TMP DP  RH WIND       PRES   REMARKS
BEMIDJI        LGT RAIN  54  54  98 CALM      29.80F
HALLOCK        CLOUDY    54  48  82 CALM      29.79S
ROSEAU         CLOUDY    55  48  76 CALM      29.80F
WARROAD        CLOUDY    55  48  76 N3        29.80F
THIEF RVR FALL CLOUDY    57  50  77 CALM      29.81F
CROOKSTON      CLOUDY    57  52  82 CALM      29.81F
FOSSTON        DRIZZLE   54  50  87 CALM      29.82S
DETROIT LAKES  LGT RAIN  55  54  94 NE10      29.78S
MOORHEAD       LGT RAIN  57  55  94 N12       29.78F
PARK RAPIDS    LGT RAIN  58  55  90 NE9G18    29.75F
MAHNOMEN       RAIN      55  54  95 NE7       29.80S
$$
MNZ006-009>011-018-025>026-251200-
   North Central Minnesota

CITY           SKY/WX    TMP DP  RH WIND       PRES   REMARKS
BAUDETTE       CLOUDY    53  50  89 CALM      29.79F
FLAG ISLAND    CLOUDY    63  45  51 NE10      29.79F
INTL FALLS     CLOUDY    54  49  83 CALM      29.81F
WASKISH        CLOUDY    57  54  88 CALM      29.81S
BIG FORK       LGT RAIN  54  54 100 CALM      29.82S
LONGVILLE      LGT RAIN  55  55 100 N6        29.76F
GRAND RAPIDS   CLOUDY    55  52  88 NE3       29.79S
CRANE LAKE     CLOUDY    52  48  87 CALM      29.83F
ORR            CLOUDY    55  50  82 CALM      29.79F
COOK           DRIZZLE   55  54  94 CALM      29.82F
WALKER         RAIN      56  55  95 NE7       29.78F
$$
MNZ012-019>021-037-251200-
   Northeast Minnesota

CITY           SKY/WX    TMP DP  RH WIND       PRES   REMARKS
DULUTH         LGT RAIN  58  55  90 NE15      29.75F FOG
ELY            LGT RAIN  55  54  94 CALM      29.82F
HIBBING        LGT RAIN  57  54  89 NE3       29.79F
EVELETH        LGT RAIN  57  55  94 NE6       29.80F
DULUTH HARBOR  DRIZZLE   48  46  93 E12       29.76S
TWO HARBORS    DRIZZLE   61  55  82 NE10G16   29.76F
GRAND MARAIS     N/A     46  43  89 NE6       29.84F
G MARAIS ARPRT LGT RAIN  48  46  93 N3        29.86F
$$
MNZ029>031-032-039>041-046>048-054>057-064-251200-
   West Central Minnesota

CITY           SKY/WX    TMP DP  RH WIND       PRES   REMARKS
FERGUS FALLS   DRIZZLE   57  57 100 NE10G20   29.73F
WHEATON        RAIN      54  54 100 N9        29.74S
MORRIS         LGT RAIN  57  57 100 N7        29.69F
ALEXANDRIA     LGT RAIN  57  57 100 NE7       29.71S
ELBOW LAKE     RAIN      56  56  98 NE7       29.71F
WADENA         RAIN      55  55 100 NE14G20   29.71F
GLENWOOD       CLOUDY    55  55 100 N7        29.70F
APPLETON       DRIZZLE   59  55  88 N5        29.69F
BENSON         LGT RAIN  57  55  94 N3        29.69F
ORTONVILLE     LGT RAIN  57  55  94 N8        29.70F
MADISON        CLOUDY    57  55  94 NW5       29.70F
WILLMAR        DRIZZLE   57  57 100 NW3       29.69S
$$
MNZ033>034-036-042>043-049>051-058-059-251200-
   Central Minnesota

CITY           SKY/WX    TMP DP  RH WIND       PRES   REMARKS
ST CLOUD       LGT RAIN  57  56  96 E6        29.67F FOG
SAUK CENTRE    RAIN      56  55  98 NE3       29.68F
PAYNESVILLE    HVY RAIN  54  54 100 N3        29.68S
AITKIN         HVY RAIN  57  52  82 NE9       29.70F
PINE RIVER     RAIN      57  55  94 N9        29.78S
BRAINERD       RAIN      57  56  96 NE9       29.72S FOG
STAPLES        RAIN      55  55 100 NE8       29.71F
LONG PRAIRIE   LGT RAIN  55  54  94 N7        29.69F
LITTLE FALLS   DRIZZLE   55  54  94 NE5       29.68F
LITCHFIELD     CLOUDY    57  57 100 CALM      29.68S
BUFFALO        DRIZZLE   57  55  94 E5        29.67F
MAPLE LAKE     DRIZZLE   58  57  98 E5        29.67F
$$
MNZ037-044-045-052-053-251200-
   East Central Minnesota

CITY           SKY/WX    TMP DP  RH WIND       PRES   REMARKS
PRINCETON      CLOUDY    57  57 100 NE7       29.68F FOG
MORA           DRIZZLE   54  52  94 E3        29.71F
CAMBRIDGE      CLOUDY    59  52  77 CALM      29.67F
RUSH CITY      HVY RAIN  57  55  95 NE3       29.69F
MOOSE LAKE     DRIZZLE   54  52  94 NE7       29.71F
HINCKLEY       RAIN      57  57 100 NE6       29.70F
CLOQUET        RAIN      57  55  94 E7        29.74S
MCGREGOR       CLOUDY    55  55 100 NE12G17   29.72F
$$
MNZ071>073-080-081-089-090-097-098-251200-
   Southwest Minnesota

CITY           SKY/WX    TMP DP  RH WIND       PRES   REMARKS
MONTEVIDEO     LGT RAIN  57  57 100 N3        29.70S
GRANITE FALLS  LGT RAIN  57  57 100 W5        29.71S
CANBY          DRIZZLE   57  56  97 NW5       29.72S
MARSHALL       CLOUDY    57  54  88 NW8       29.70S
REDWOOD FALLS  FOG       58  57  97 W6        29.67F VSB 3/4
OLIVIA         CLOUDY    54  54 100 CALM      29.67F FOG
PIPESTONE      CLOUDY    57  55  94 N8        29.71F
WINDOM         CLOUDY    57  55  94 W7        29.70F FOG
WORTHINGTON    CLOUDY    57  54  88 NW8       29.71F
JACKSON        CLOUDY    59  59 100 W8        29.71S FOG
TRACY          CLOUDY    58  57  99 NW6       29.70F FOG
SLAYTON        CLOUDY    56  56 100 NW5       29.71F FOG
$$
MNZ065>067-074>077-082>085-091>093-251200-
   South Central Minnesota

CITY           SKY/WX    TMP DP  RH WIND       PRES   REMARKS
MANKATO        CLOUDY    61  57  88 SW7       29.68S
NEW ULM        CLOUDY    57  57 100 W8        29.68R FOG
ST JAMES       CLOUDY    61  61 100 W8        29.69F
FAIRMONT       CLOUDY    61  55  82 W10       29.70R
GLENCOE        FOG       60  60 100 CALM      29.66R VSB 1/2
FARIBAULT      CLOUDY    63  61  94 S7        29.67F FOG
OWATONNA       CLOUDY    63  59  88 SW8       29.68S
WASECA         CLOUDY    59  57  94 SW10      29.69F FOG
ALBERT LEA     CLOUDY    61  61 100 SW6       29.70R FOG
$$
MNZ078>079-086>088-094>096-251200-
   Southeast Minnesota

CITY           SKY/WX    TMP DP  RH WIND       PRES   REMARKS
ROCHESTER      CLOUDY    61  60  97 SW8       29.71R FOG
RED WING       DRIZZLE   57  57 100 SE5       29.67S
STANTON        CLOUDY    62  59  91 S6        29.66S FOG
DODGE CENTER   CLOUDY    63  61  94 SW10      29.69S FOG
WINONA         CLOUDY    59  59 100 CALM      29.69S FOG
AUSTIN         CLOUDY    61  61 100 SW7       29.70S FOG
PRESTON        CLOUDY    61  60  97 SW7       29.71S FOG
$$
ABBREVIATIONS USED IN REMARKS
   TC - TEMPERATURES IN CELSIUS
  WCI - WIND CHILL INDEX
   HX - HEAT INDEX
  VSB - VISIBILITY
$$



USA.gov is the U.S. government's official web portal to all federal, state and local government web resources and services.